Location: Brachbach
(49.1847°N, 9.7240°E)
Time: 05:36:23
(UTC+00:00)

PCSat - Pass Details

Date: 15 March 2026
Orbit: 780 x 790 km, 67.1° (Epoch: 13 April)

Event Time Altitude Azimuth Distance (km) Brightness Sun altitude
Rises 03:53:34 0° 324° (NW) 3,296 12.6 -17.2°
Reaches altitude 10° 03:56:51 10° 343° (NNW) 2,365 12.0 -16.7°
Maximum altitude 04:00:25 18° 25° (NNE) 1,893 12.0 -16.1°
Drops below altitude 10° 04:03:59 10° 66° (ENE) 2,360 13.4 -15.6°
Sets 04:07:14 0° 86° (E) 3,286 14.5 -15.0°
